Wind_Speed
37 35 34 34 33 33 32 30 28 27 26 25 24 23 22 22 21 21 20 20 19 19 18 18 17 17 17 17 17 17 17 16 16 16 16 16 15 15 15 15 15 15 14 14
38 37 36 36 35 34 34 33 31 30 29 27 26 26 25 24 23 23 22 22 22 22 21 20 20 19 19 19 19 19 18 18 18 18 17 17 16 16 16 16 16 17 16 15
38 38 37 39 37 36 36 35 33 32 31 30 29 28 27 26 25 25 25 24 24 24 23 23 22 22 21 21 21 21 21 20 20 19 19 19 18 18 18 18 18 18 17 17
37 37 39 38 36 37 37 36 35 34 33 32 30 29 29 28 28 27 27 27 26 27 27 26 25 24 24 23 23 23 23 23 22 22 21 21 21 20 20 20 19 19 19 19
38 38 39 39 39 38 38 38 36 35 34 33 32 31 30 30 29 29 29 29 29 29 28 28 27 26 25 25 25 25 25 25 24 23 23 23 22 22 22 22 21 20 20 20
40 39 39 38 39 38 38 39 38 37 36 35 33 33 32 31 31 30 30 30 29 29 29 28 28 27 27 27 27 27 27 26 26 26 25 25 25 24 23 23 22 23 23 23
40 40 41 39 39 38 38 38 38 38 36 35 35 34 33 32 32 31 30 30 30 29 29 29 29 29 29 29 29 28 28 28 28 28 27 27 27 27 26 25 25 25 25 25
40 40 40 40 39 39 38 38 38 38 37 36 36 35 35 34 33 32 31 31 31 31 31 31 31 31 30 30 30 30 29 29 29 29 29 29 28 28 28 28 28 28 27 27
40 40 40 41 40 38 37 38 38 38 38 37 36 35 35 35 35 34 34 33 34 33 33 32 32 32 32 32 32 31 31 31 31 31 31 31 30 30 30 30 30 30 29 29
40 40 40 40 39 38 37 38 39 38 37 38 37 37 37 37 36 36 36 36 35 35 34 34 33 33 33 33 33 32 32 32 32 32 33 33 32 32 32 31 30 31 31 30
40 40 40 40 39 38 37 38 39 39 38 38 39 39 38 38 38 38 37 37 36 35 35 35 34 34 34 34 33 32 33 33 33 34 34 33 33 33 33 32 32 33 32 31
40 40 40 40 39 38 37 37 38 39 39 38 38 38 37 37 37 38 38 37 36 36 36 36 36 35 35 35 34 33 33 34 34 34 34 34 34 34 34 34 33 33 33 33
39 39 39 39 39 38 38 37 37 38 38 38 37 37 37 36 35 35 35 36 35 35 35 35 35 35 35 35 34 34 34 34 34 34 35 35 35 34 34 34 34 34 34 34
38 38 38 38 38 37 37 37 38 38 38 38 37 36 36 35 34 34 34 34 34 34 35 35 35 34 34 35 34 34 35 34 34 34 34 34 34 34 35 35 34 35 35 35
34 35 35 36 36 36 37 37 37 37 37 37 36 36 35 33 33 32 33 33 33 33 33 34 34 35 35 36 36 35 35 35 34 34 34 34 34 34 34 35 35 35 34 34
31 32 33 34 34 35 35 35 35 35 35 35 34 34 33 33 33 33 33 33 33 33 33 33 33 34 35 35 35 35 35 34 34 34 33 33 34 33 33 33 34 34 35 34
31 32 33 33 33 33 33 34 34 34 34 33 33 34 34 34 34 33 33 33 33 33 33 33 33 34 34 34 34 34 34 34 34 34 33 33 33 34 34 35 34 34 34 33
29 30 31 31 32 31 32 32 32 32 32 31 31 31 33 34 33 32 32 32 33 33 33 32 33 33 34 34 34 34 34 34 33 34 34 34 34 34 34 34 35 35 34 33
26 27 28 28 29 29 29 29 29 29 30 29 30 30 31 32 32 32 32 32 32 32 32 32 32 32 33 34 34 33 33 33 34 34 34 34 34 35 35 35 34 33 33 33
22 23 25 26 27 27 27 27 27 27 28 29 29 29 30 30 31 31 31 31 31 30 30 30 30 30 31 32 32 33 33 33 33 33 34 34 34 34 35 34 34 33 33 33
19 20 22 24 25 26 26 25 25 26 27 27 28 29 29 30 30 31 31 30 29 29 29 30 30 30 31 32 32 32 32 32 32 33 33 33 33 34 33 33 32 32 32 32
17 18 19 20 22 23 23 23 24 25 26 27 27 28 29 29 29 29 29 29 29 29 29 30 30 31 31 31 32 32 32 32 32 33 33 33 33 33 33 32 32 33 32 33
16 16 16 17 18 20 21 21 22 23 24 25 26 27 27 28 28 27 27 28 28 29 30 30 30 30 31 31 32 32 32 32 31 31 32 32 32 31 31 31 32 32 33 33
14 14 15 15 16 17 18 18 19 20 22 23 24 24 25 26 27 28 28 28 28 28 29 29 30 31 31 31 31 30 30 30 30 30 31 31 30 30 30 31 31 31 31 32
13 13 13 14 14 14 15 16 17 18 19 20 21 22 24 25 25 26 26 27 28 29 29 29 29 30 30 30 30 30 29 29 30 31 31 31 30 30 30 30 30 30 30 30
11 11 11 12 13 13 14 14 15 16 17 18 20 21 22 22 22 23 23 24 25 27 28 28 29 29 28 28 28 28 29 29 30 30 30 30 30 30 31 31 31 30 30 30
10 10 10 11 12 13 13 13 14 15 16 17 17 18 19 20 20 20 21 22 24 25 26 26 26 27 27 26 26 26 27 27 28 29 29 29 30 30 30 30 30 30 30 30
Wind_Direction
233 234 237 240 241 241 241 243 246 250 250 250 252 255 257 259 262 265 265 266 268 270 272 274 276 279 280 281 283 286 289 292 294 294 293 296 295 295 294 295 298 302 305 305
236 237 238 240 240 241 243 244 246 247 249 251 252 252 254 257 261 262 263 265 268 270 270 271 274 277 277 279 281 283 285 287 290 292 289 289 290 290 289 292 294 297 300 302
237 238 240 241 240 242 243 245 247 248 250 252 252 253 254 255 258 260 261 263 266 268 269 270 272 274 274 276 278 279 281 283 286 287 287 288 290 288 286 286 290 294 295 298
238 239 240 243 242 243 244 244 246 248 251 252 253 253 254 254 255 258 261 262 263 265 268 269 270 271 271 272 275 277 278 281 283 283 285 287 289 288 284 283 284 289 291 292
237 240 243 243 243 243 244 245 246 248 250 252 253 253 253 254 255 257 259 262 263 264 266 267 268 267 268 271 273 276 277 279 281 282 283 285 286 285 283 282 283 285 288 288
238 239 242 246 246 246 246 247 246 247 248 249 250 251 252 254 255 257 259 260 262 263 265 266 266 265 267 270 272 274 276 278 279 280 281 282 283 283 282 282 283 285 287 288
239 241 243 243 245 245 245 247 247 248 248 248 249 251 252 253 255 256 257 259 262 264 265 265 265 265 267 269 270 271 273 275 277 278 279 280 281 282 281 283 285 287 286 286
239 241 243 243 244 244 246 246 247 247 247 247 248 249 250 251 253 254 256 259 261 263 265 267 267 267 267 269 269 270 271 272 274 276 277 278 279 281 282 282 283 284 284 284
239 240 241 243 244 245 245 246 246 246 246 246 247 248 250 251 253 254 256 259 261 262 264 266 268 268 268 269 270 270 271 272 273 274 275 277 278 279 280 281 281 282 282 282
240 241 242 243 244 244 244 244 244 245 245 247 247 249 252 253 254 255 258 259 260 261 262 264 266 268 269 269 269 269 272 274 274 275 276 276 277 277 277 278 279 281 281 279
239 240 241 242 243 243 243 243 244 245 246 248 250 250 251 253 254 255 257 258 259 260 261 263 265 268 268 268 268 270 272 273 275 276 277 275 275 275 275 276 277 278 279 279
238 238 240 240 241 242 243 244 245 246 248 249 251 252 252 253 254 256 258 259 260 261 261 262 264 266 266 266 268 270 272 272 273 274 276 276 275 274 274 274 275 276 276 277
237 237 239 239 240 241 244 246 247 248 249 249 250 252 253 253 255 256 258 260 260 260 261 262 263 264 265 267 269 270 271 272 272 274 275 276 276 275 275 275 275 277 279 280
237 237 237 238 239 240 244 246 247 247 248 249 250 251 252 253 255 257 259 260 260 261 261 261 262 264 266 267 269 269 270 272 272 273 274 275 276 276 275 274 275 278 279 279
235 235 236 238 238 239 242 244 246 247 248 249 250 252 251 252 254 255 257 259 261 261 261 261 262 263 264 266 268 269 270 271 271 273 274 274 275 276 276 276 276 278 279 277
233 235 236 236 238 239 241 243 244 246 247 248 249 250 251 252 253 254 256 259 260 261 262 262 263 264 264 265 267 268 268 270 272 274 275 274 275 276 277 278 278 277 278 276
231 233 234 236 237 239 241 243 245 246 247 247 249 250 251 252 254 255 257 259 259 259 260 262 263 264 264 264 264 266 267 269 271 272 274 275 277 277 278 279 280 280 278 276
232 232 234 236 238 239 241 244 246 247 248 249 251 252 251 251 254 255 258 259 258 258 260 261 262 263 263 263 264 266 267 267 269 271 273 275 276 277 278 279 280 279 278 276
231 231 233 235 237 239 241 244 245 245 246 248 250 252 252 251 253 254 256 256 258 259 259 260 261 263 262 262 264 265 266 267 268 271 273 275 275 276 277 278 280 280 278 278
235 235 235 237 239 239 241 244 245 245 246 248 248 250 252 253 253 254 255 256 257 257 258 260 262 262 262 262 263 265 266 268 270 272 274 276 276 277 276 277 278 278 278 278
237 238 237 238 239 241 242 244 245 245 247 249 249 250 251 252 252 252 253 255 256 258 260 261 262 262 262 263 264 265 267 269 270 273 274 275 276 277 277 276 277 278 278 278
238 239 237 238 240 242 243 244 245 245 247 249 249 248 249 250 250 251 252 255 257 259 260 261 262 263 263 264 264 265 268 271 272 273 273 274 276 277 278 277 277 277 278 279
236 237 238 243 243 244 246 246 246 247 247 248 250 250 251 251 251 253 255 257 259 260 261 261 262 264 265 266 267 267 268 269 271 271 273 275 275 275 276 277 276 277 277 278
236 238 242 245 244 246 247 247 247 249 251 252 252 252 253 256 258 256 257 258 259 260 262 263 265 267 268 267 267 268 268 269 270 271 273 273 274 276 277 278 279 279 279 279
242 245 245 246 246 247 250 251 252 254 254 254 256 258 259 261 261 261 261 261 261 260 261 262 265 267 268 267 267 267 268 270 272 272 273 275 276 277 279 280 280 280 280 281
244 247 249 247 245 248 251 251 252 255 256 257 259 261 263 262 261 261 264 265 265 264 265 265 266 268 269 268 268 269 270 271 271 271 273 274 276 278 279 280 281 281 281 281
246 250 255 255 253 252 253 256 259 260 261 261 262 265 265 266 266 267 268 269 269 268 268 267 268 268 268 268 268 270 270 271 272 273 275 276 278 278 278 278 279 281 281 282
Height
5859 5863 5867 5870 5873 5876 5879 5883 5886 5889 5890 5892 5893 5894 5895 5896 5896 5897 5898 5898 5898 5898 5897 5897 5896 5896 5895 5894 5893 5892 5891 5890 5889 5888 5886 5885 5883 5882 5881 5880 5878 5877 5875 5874
5850 5854 5858 5861 5865 5868 5871 5874 5878 5880 5883 5884 5886 5887 5888 5889 5890 5891 5892 5892 5892 5892 5892 5891 5891 5890 5890 5889 5888 5887 5887 5886 5884 5883 5881 5880 5879 5878 5877 5876 5874 5873 5871 5870
5842 5846 5849 5852 5857 5860 5863 5866 5870 5872 5875 5876 5878 5879 5881 5882 5883 5884 5885 5885 5885 5885 5885 5885 5885 5885 5884 5883 5882 5882 5881 5880 5879 5878 5876 5875 5874 5873 5872 5871 5870 5869 5867 5865
5834 5837 5839 5845 5848 5851 5854 5857 5860 5863 5865 5868 5869 5871 5873 5874 5875 5877 5877 5878 5878 5878 5878 5878 5878 5878 5877 5877 5876 5875 5875 5874 5873 5871 5870 5870 5868 5867 5866 5866 5865 5864 5862 5860
5824 5827 5830 5834 5838 5842 5845 5847 5851 5854 5856 5859 5860 5862 5864 5866 5867 5868 5869 5870 5870 5870 5870 5870 5871 5870 5870 5870 5869 5868 5867 5867 5866 5865 5864 5863 5862 5861 5860 5859 5859 5858 5856 5855
5814 5818 5821 5826 5828 5832 5836 5837 5841 5843 5847 5849 5851 5854 5856 5857 5858 5859 5860 5861 5861 5862 5862 5862 5863 5863 5863 5862 5861 5861 5861 5860 5859 5858 5857 5856 5855 5854 5853 5852 5852 5851 5850 5848
5804 5807 5811 5815 5818 5822 5826 5829 5831 5834 5837 5839 5842 5844 5846 5847 5849 5850 5851 5852 5852 5853 5853 5854 5854 5854 5854 5854 5853 5853 5852 5852 5851 5850 5850 5849 5848 5847 5846 5845 5844 5843 5842 5841
5794 5798 5803 5804 5808 5812 5815 5818 5821 5823 5826 5829 5831 5833 5835 5837 5838 5840 5841 5843 5843 5844 5844 5845 5845 5845 5845 5845 5845 5844 5844 5843 5843 5842 5841 5840 5840 5839 5838 5837 5836 5835 5834 5833
5784 5789 5791 5794 5797 5801 5804 5807 5810 5813 5816 5818 5821 5823 5826 5827 5829 5830 5831 5833 5833 5834 5835 5835 5835 5835 5835 5835 5835 5835 5835 5834 5834 5833 5832 5832 5831 5830 5829 5828 5827 5827 5826 5825
5772 5776 5780 5783 5787 5790 5793 5797 5799 5802 5805 5807 5810 5813 5815 5817 5818 5819 5820 5821 5822 5823 5824 5824 5825 5825 5825 5825 5825 5825 5825 5825 5824 5824 5823 5822 5821 5821 5820 5819 5818 5818 5817 5815
5762 5765 5769 5773 5776 5780 5783 5786 5789 5792 5794 5797 5799 5801 5803 5805 5807 5808 5809 5810 5811 5812 5813 5814 5814 5814 5814 5814 5814 5815 5815 5815 5814 5814 5813 5812 5812 5811 5810 5810 5809 5809 5807 5806
5751 5755 5759 5763 5766 5769 5773 5776 5778 5781 5783 5785 5788 5790 5791 5793 5795 5796 5797 5798 5799 5800 5801 5802 5803 5803 5803 5804 5804 5805 5805 5804 5804 5804 5803 5802 5802 5801 5800 5800 5799 5798 5797 5796
5740 5744 5748 5752 5756 5759 5762 5765 5768 5770 5773 5775 5777 5779 5781 5782 5784 5785 5786 5787 5788 5789 5790 5791 5792 5792 5792 5793 5793 5794 5794 5794 5794 5793 5793 5792 5792 5791 5791 5790 5789 5788 5787 5786
5730 5734 5738 5742 5745 5749 5752 5755 5757 5760 5762 5764 5767 5769 5770 5772 5773 5775 5776 5776 5777 5778 5779 5780 5781 5781 5782 5783 5783 5784 5784 5784 5783 5783 5783 5782 5781 5781 5780 5779 5779 5778 5776 5775
5720 5724 5729 5732 5736 5739 5742 5745 5747 5750 5752 5754 5756 5758 5760 5762 5763 5765 5766 5767 5767 5768 5769 5770 5770 5771 5772 5773 5773 5774 5774 5774 5773 5773 5772 5772 5771 5770 5769 5768 5768 5767 5766 5766
5712 5716 5719 5723 5726 5730 5732 5735 5737 5740 5742 5744 5746 5749 5750 5751 5753 5755 5756 5757 5758 5759 5759 5759 5760 5761 5762 5762 5763 5763 5764 5764 5763 5763 5762 5762 5762 5761 5760 5758 5758 5757 5756 5755
5703 5707 5711 5714 5718 5721 5723 5725 5728 5730 5732 5735 5737 5738 5740 5742 5743 5744 5746 5747 5748 5748 5749 5750 5750 5751 5751 5752 5753 5753 5754 5754 5754 5753 5753 5752 5752 5751 5750 5749 5748 5747 5746 5745
5695 5699 5702 5706 5709 5712 5714 5716 5718 5721 5723 5725 5726 5727 5729 5731 5733 5734 5736 5737 5738 5738 5740 5740 5741 5741 5741 5742 5743 5743 5744 5744 5744 5744 5743 5743 5742 5741 5740 5739 5738 5737 5736 5735
5688 5691 5695 5698 5700 5703 5705 5708 5709 5711 5713 5715 5717 5718 5720 5722 5724 5725 5727 5727 5728 5729 5730 5731 5731 5731 5732 5732 5733 5733 5734 5734 5734 5734 5734 5733 5732 5731 5729 5728 5727 5726 5725 5724
5681 5684 5687 5690 5692 5695 5697 5699 5700 5702 5704 5706 5708 5710 5711 5713 5715 5716 5717 5718 5719 5720 5721 5721 5722 5722 5722 5723 5723 5723 5724 5724 5724 5724 5723 5722 5722 5721 5719 5718 5717 5716 5715 5714
5676 5678 5681 5683 5685 5687 5689 5691 5692 5694 5696 5698 5700 5701 5703 5704 5705 5706 5708 5709 5710 5711 5712 5712 5712 5713 5713 5714 5714 5714 5714 5714 5714 5713 5713 5712 5711 5710 5708 5707 5707 5706 5705 5704
5671 5673 5675 5677 5679 5680 5682 5683 5685 5687 5688 5690 5691 5692 5694 5695 5696 5697 5698 5700 5701 5702 5702 5703 5703 5704 5704 5704 5704 5704 5704 5704 5704 5703 5703 5702 5701 5700 5699 5697 5696 5696 5695 5694
5666 5668 5670 5671 5672 5674 5675 5677 5678 5679 5681 5682 5683 5684 5685 5686 5687 5688 5690 5691 5691 5692 5693 5694 5694 5695 5695 5695 5695 5695 5695 5694 5694 5693 5693 5692 5691 5690 5689 5688 5687 5686 5685 5683
5662 5664 5665 5666 5667 5669 5670 5671 5672 5673 5674 5674 5675 5676 5677 5678 5679 5680 5681 5682 5682 5683 5684 5684 5685 5685 5685 5685 5685 5685 5685 5685 5684 5684 5683 5682 5682 5681 5680 5679 5677 5676 5675 5674
5658 5659 5660 5662 5663 5664 5664 5665 5666 5666 5667 5667 5668 5669 5669 5670 5670 5671 5672 5672 5673 5674 5675 5675 5675 5676 5675 5675 5675 5675 5675 5675 5675 5674 5674 5673 5672 5671 5670 5669 5667 5666 5665 5663
5654 5655 5656 5657 5658 5659 5659 5659 5660 5660 5661 5661 5662 5662 5662 5662 5663 5663 5663 5664 5664 5665 5666 5666 5667 5667 5666 5666 5666 5666 5666 5666 5665 5665 5664 5663 5662 5661 5660 5659 5658 5656 5655 5653
5651 5652 5653 5653 5654 5654 5654 5655 5655 5656 5656 5656 5656 5656 5656 5656 5656 5656 5656 5656 5656 5657 5657 5657 5657 5657 5657 5658 5657 5657 5657 5656 5656 5655 5654 5653 5652 5651 5650 5649 5648 5647 5645 5644